Regional Weather Roundup
Issued by NWS

Home | Current Version | Previous Version | Text Only | Print | Product List | Glossary On
Versions: 1 2 3 4 5 6 7 8 9 10 11 12 13 14 15 16 17 18 19 20 21 22 23 24 25 26 27 28 29 30 31 32 33 34 35 36 37 38 39 40 41 42 43 44 45 46 47 48 49 50
000
ASUS43 KDTX 191401
RWRMI
MICHIGAN HOURLY REGIONAL WEATHER ROUNDUP
NATIONAL WEATHER SERVICE DETROIT/PONTIAC MI
1000 AM EDT TUE SEP 19 2017

NOTE: "FAIR" INDICATES FEW OR NO CLOUDS BELOW 12,000 FEET WITH NO
SIGNIFICANT WEATHER AND/OR OBSTRUCTION TO VISIBILITY.

MIZ047>049-052>055-059>063-066>070-074>076-081>083-191500-
SOUTHEAST LOWER MICHIGAN

CITY           SKY/WX    TMP DP  RH WIND       PRES   REMARKS
ADRIAN         LGT RAIN  64  62  93 CALM      30.03R FOG
ALMA           CLOUDY    58  55  89 N5        30.04S
ANN ARBOR      CLOUDY    66  63  90 NE5       30.01R
BAD AXE        CLOUDY    64  61  90 N5        30.05S
CARO           CLOUDY    64  57  79 N5        30.03S
DETROIT CITY   CLOUDY    68  65  90 E8        30.01R
DETROIT        PTSUNNY   71  64  78 NE8       30.01R
FLINT          CLOUDY    63  56  78 NE3       30.03R
GROSSE ILE     CLOUDY    66  66 100 NE8       29.99R FOG
HILLSDALE      HVY RAIN  63  61  94 E8        30.01R
HOWELL         CLOUDY    61  57  88 CALM      30.01F

CITY           SKY/WX    TMP DP  RH WIND       PRES   REMARKS
JACKSON        CLOUDY    62  60  93 E5        30.02R FOG
LAMBERTVILLE   RAIN      68  65  92 N3        29.99R
LANSING        CLOUDY    61  54  77 E8        30.02F
LAPEER         CLOUDY    64  58  82 CALM      30.04R
MASON          LGT RAIN  61  56  84 NE3       30.02R
MONROE         LGT RAIN  67  64  90 CALM      30.00R
MT. CLEMENS    CLOUDY    67  67 100 E8        30.00R
PONTIAC        CLOUDY    66  62  87 NE9       30.01R
PORT HOPE        N/A     66  62  87 E14       30.04R
PORT HURON     CLOUDY    66  64  94 NE5       30.02R
TRI CITIES     PTSUNNY   61  60  97 N8        30.05F
MIDLAND        FAIR      60  58  93 CALM      30.04F
TROY           PTSUNNY   67  62  85 NE8       30.03S
SAGINAW HB     CLOUDY    61  57  88 NE7       30.04S
$$
MIZ043>046-050>051-056>058-064>065-071>073-077>080-191500-
SOUTHWEST LOWER MICHIGAN

CITY           SKY/WX    TMP DP  RH WIND       PRES   REMARKS
BATTLE CREEK   CLOUDY    63  62  97 E10       29.98F FOG
BENTON HARBOR    N/A     69  65  86 E8        29.95S
BIG RAPIDS     PTSUNNY   60  55  84 E7        30.04S
COLDWATER      CLOUDY    65  65 100 E8        29.98S FOG
FREMONT        FAIR      61  52  71 E7        30.01S
HOLLAND        CLOUDY    64  60  87 E8        29.99R
GRAND RAPIDS   CLOUDY    62  53  72 NE12      30.00S
IONIA          CLOUDY    61  53  75 NE8       30.01S
KALAMAZOO      CLOUDY    66  63  90 NE3       29.97S FOG
LUDINGTON      MOSUNNY   61  54  76 E7        30.02R
MARSHALL       DRIZZLE   62  62  99 NE6       29.98F
MOUNT PLEASANT CLOUDY    59  56  90 NE5       30.03F
MUSKEGON       CLOUDY    65  50  58 E10       30.00S
SOUTH HAVEN    CLOUDY    69  67  94 NE5       29.96S FOG
$$
MIZ016>042-191500-
NORTHERN LOWER MICHIGAN

CITY           SKY/WX    TMP DP  RH WIND       PRES   REMARKS
ALPENA         MOSUNNY   67  60  78 E12       30.08F
BEAVER ISLAND  SUNNY     63  58  82 E9        30.07R
BELLAIRE       CLOUDY    63  51  65 E5        30.06S
CADILLAC       MOSUNNY   60  50  69 E9        30.05S
CHARLEVOIX     CLOUDY    61  54  75 E9        30.09S
FRANKFORT      CLOUDY    62  52  68 E7        30.04S
GAYLORD        PTSUNNY   59  55  87 E6        30.08S
GRAYLING       MOSUNNY   56  51  85 CALM      30.08S
HARBOR SPRINGS CLOUDY    61  57  86 E9        30.07S
HOUGHTON LAKE  MOSUNNY   58  54  86 E7        30.07S
MANISTEE       MOSUNNY   60  54  80 E7        30.03R
OSCODA         PTSUNNY   64  62  94 NE12      30.06S
PELLSTON       MOSUNNY   62  57  83 SE6       30.08S
ROGERS CITY    CLOUDY    64  60  87 E10       30.10S
TRAVERSE CITY  CLOUDY    60  51  72 CALM      30.04F
$$
MIZ007>008-015-191500-
EASTERN UPPER MICHIGAN

CITY           SKY/WX    TMP DP  RH WIND       PRES   REMARKS
KINROSS        CLOUDY    60  56  86 E9        30.10R
MACKINAC ISLAN CLOUDY    64  61  90 E8        30.08S
NEWBERRY       MOSUNNY   59  55  88 E6        30.08S
S. S. MARIE    CLOUDY    61  51  70 E7        30.09S
MUNISING         N/A     62  52  69 VRB3      30.06S
$$
MIZ004>006-011>014-085-191500-
CENTRAL UPPER MICHIGAN

CITY           SKY/WX    TMP DP  RH WIND       PRES   REMARKS
MANISTIQUE     CLOUDY    62  56  81 SE8       30.06S
ESCANABA       CLOUDY    64  58  80 E9        30.05S
MENOMINEE      MOSUNNY   65  59  81 E12       30.03S
SAWYER-GWINN   MOSUNNY   59  45  58 SE7       30.06S
$$
MIZ001>003-009>011-084-191500-
WESTERN UPPER MICHIGAN

CITY           SKY/WX    TMP DP  RH WIND       PRES   REMARKS
IRON MOUNTAIN  CLOUDY    59  54  83 CALM      30.04S
HOUGHTON       MOSUNNY   59  51  75 E8        30.03F
COPPER HARBOR    N/A     60  53  77 VRB7      30.04F
IRONWOOD       CLOUDY    59  52  77 CALM      30.00F
$$

ABBREVIATIONS USED IN REMARKS
   TC - TEMPERATURE IN CELSIUS
  WCI - WIND CHILL INDEX
   HX - HEAT INDEX
  VSB - VISIBILITY




USA.gov is the U.S. government's official web portal to all federal, state and local government web resources and services.